When you browse on this site, cookies collect data to enhance your experience and personalize the content and advertising you see.
Visit our Privacy Policy to learn more. By continuing to use the site, you agree to this use of cookies and data.
EN

Hourly Weather Zdzarka

Today, 3 August, Monday

Time Temperature Precipitation Wind Pressure Humidity
00:00 +17°C° 0 mm 2 mps 745 mmHg 78%
01:00 +16°C° 0 mm 2 mps 745 mmHg 79%
02:00 +16°C° 0 mm 2 mps 745 mmHg 77%
03:00 +16°C° 0 mm 2 mps 745 mmHg 77%
04:00 +16°C° 0 mm 2 mps 745 mmHg 76%
05:00 +16°C° 0 mm 2 mps 744 mmHg 75%
06:00 +17°C° 0 mm 3 mps 744 mmHg 74%
07:00 +18°C° 0 mm 4 mps 744 mmHg 72%
08:00 +19°C° 0 mm 4 mps 745 mmHg 71%
09:00 +21°C° 0 mm 5 mps 744 mmHg 66%
10:00 +22°C° 0 mm 5 mps 744 mmHg 62%
11:00 +25°C° 0 mm 5 mps 744 mmHg 58%
12:00 +25°C° 0 mm 5 mps 744 mmHg 57%
13:00 +26°C° 0 mm 5 mps 744 mmHg 56%
14:00 +27°C° 0 mm 5 mps 743 mmHg 55%
15:00 +27°C° 0 mm 5 mps 743 mmHg 57%
16:00 +27°C° 0 mm 5 mps 743 mmHg 58%
17:00 +27°C° 0 mm 5 mps 743 mmHg 59%
18:00 +25°C° 0 mm 4 mps 742 mmHg 65%
19:00 +23°C° 0 mm 4 mps 742 mmHg 72%
20:00 +21°C° 0 mm 4 mps 742 mmHg 78%
21:00 +21°C° 0 mm 4 mps 742 mmHg 81%
22:00 +20°C° 0 mm 4 mps 742 mmHg 83%
23:00 +19°C° 0 mm 3 mps 742 mmHg 86%

Tomorrow, 4 August, Tuesday

Time Temperature Precipitation Wind Pressure Humidity
00:00 +19°C° 0 mm 3 mps 742 mmHg 85%
01:00 +20°C° 0 mm 3 mps 742 mmHg 83%
02:00 +20°C° 0 mm 3 mps 742 mmHg 82%
03:00 +19°C° 0 mm 3 mps 741 mmHg 82%
04:00 +19°C° 0 mm 2 mps 741 mmHg 82%
05:00 +19°C° 0 mm 2 mps 741 mmHg 82%
06:00 +19°C° 0 mm 2 mps 741 mmHg 81%
07:00 +20°C° 0 mm 2 mps 741 mmHg 79%
08:00 +20°C° 0 mm 3 mps 741 mmHg 78%
09:00 +22°C° 0 mm 4 mps 741 mmHg 73%
10:00 +23°C° 0 mm 5 mps 741 mmHg 68%
11:00 +26°C° 0 mm 6 mps 741 mmHg 64%
12:00 +26°C° 0 mm 5 mps 741 mmHg 63%
13:00 +27°C° 0 mm 4 mps 741 mmHg 62%
14:00 +28°C° 0 mm 4 mps 741 mmHg 61%
15:00 +28°C° 0.1 mm 4 mps 741 mmHg 63%
16:00 +28°C° 0.1 mm 3 mps 742 mmHg 64%
17:00 +28°C° 0.1 mm 3 mps 742 mmHg 65%
18:00 +26°C° 0.3 mm 3 mps 742 mmHg 72%
19:00 +25°C° 0.3 mm 2 mps 742 mmHg 78%
20:00 +23°C° 0.3 mm 2 mps 743 mmHg 84%
21:00 +21°C° 0.8 mm 2 mps 743 mmHg 88%
22:00 +20°C° 0.8 mm 3 mps 744 mmHg 92%
23:00 +19°C° 0.8 mm 3 mps 744 mmHg 95%

Day after tomorrow, 5 August, Wednesday

Time Temperature Precipitation Wind Pressure Humidity
00:00 +19°C° 0.2 mm 3 mps 745 mmHg 96%
01:00 +18°C° 0.2 mm 3 mps 745 mmHg 97%
02:00 +18°C° 0.2 mm 3 mps 745 mmHg 97%
03:00 +18°C° 0 mm 3 mps 746 mmHg 97%
04:00 +17°C° 0 mm 3 mps 746 mmHg 96%
05:00 +17°C° 0 mm 3 mps 746 mmHg 96%
06:00 +17°C° 0 mm 3 mps 747 mmHg 95%
07:00 +18°C° 0 mm 3 mps 747 mmHg 93%
08:00 +18°C° 0 mm 3 mps 747 mmHg 91%
09:00 +19°C° 0 mm 3 mps 748 mmHg 88%
10:00 +19°C° 0 mm 4 mps 748 mmHg 85%
11:00 +20°C° 0 mm 4 mps 749 mmHg 81%
12:00 +21°C° 0 mm 4 mps 749 mmHg 79%
13:00 +21°C° 0 mm 3 mps 749 mmHg 78%
14:00 +21°C° 0 mm 3 mps 749 mmHg 76%
15:00 +22°C° 0 mm 3 mps 749 mmHg 76%
16:00 +22°C° 0 mm 3 mps 749 mmHg 76%
17:00 +22°C° 0 mm 3 mps 749 mmHg 76%
18:00 +21°C° 0 mm 3 mps 749 mmHg 79%
19:00 +21°C° 0 mm 3 mps 750 mmHg 83%
20:00 +20°C° 0 mm 2 mps 750 mmHg 87%
21:00 +19°C° 0 mm 2 mps 750 mmHg 89%
22:00 +19°C° 0 mm 2 mps 750 mmHg 92%
23:00 +18°C° 0 mm 2 mps 751 mmHg 95%

6 August, Thursday

Time Temperature Precipitation Wind Pressure Humidity
00:00 +18°C° 0 mm 2 mps 751 mmHg 95%
01:00 +18°C° 0 mm 2 mps 751 mmHg 96%
02:00 +17°C° 0 mm 2 mps 751 mmHg 97%
03:00 +17°C° 0 mm 2 mps 751 mmHg 97%
04:00 +17°C° 0 mm 2 mps 751 mmHg 97%
05:00 +17°C° 0 mm 3 mps 751 mmHg 97%
06:00 +18°C° 0 mm 3 mps 751 mmHg 93%
07:00 +19°C° 0 mm 3 mps 752 mmHg 90%
08:00 +20°C° 0 mm 3 mps 752 mmHg 86%
09:00 +22°C° 0 mm 3 mps 752 mmHg 79%
10:00 +25°C° 0 mm 3 mps 753 mmHg 72%
11:00 +27°C° 0 mm 3 mps 753 mmHg 66%
12:00 +27°C° 0.1 mm 3 mps 753 mmHg 62%
13:00 +28°C° 0.1 mm 3 mps 753 mmHg 59%
14:00 +29°C° 0.1 mm 3 mps 752 mmHg 56%
15:00 +28°C° 0.3 mm 3 mps 752 mmHg 61%
16:00 +28°C° 0.3 mm 3 mps 752 mmHg 65%
17:00 +27°C° 0.3 mm 3 mps 752 mmHg 70%
18:00 +26°C° 0.3 mm 3 mps 752 mmHg 75%
19:00 +24°C° 0.3 mm 3 mps 752 mmHg 81%
20:00 +22°C° 0.3 mm 3 mps 753 mmHg 87%
21:00 +21°C° 0 mm 3 mps 753 mmHg 89%
22:00 +20°C° 0 mm 3 mps 753 mmHg 91%
23:00 +20°C° 0 mm 3 mps 753 mmHg 93%

7 August, Friday

Time Temperature Precipitation Wind Pressure Humidity
00:00 +19°C° 0 mm 3 mps 753 mmHg 94%
01:00 +19°C° 0 mm 2 mps 753 mmHg 94%
02:00 +19°C° 0 mm 2 mps 753 mmHg 95%
03:00 +18°C° 0 mm 2 mps 754 mmHg 95%
04:00 +18°C° 0 mm 3 mps 754 mmHg 95%
05:00 +17°C° 0 mm 3 mps 754 mmHg 94%
06:00 +18°C° 0 mm 3 mps 754 mmHg 90%
07:00 +19°C° 0 mm 3 mps 754 mmHg 86%
08:00 +21°C° 0 mm 3 mps 754 mmHg 82%
09:00 +22°C° 0 mm 3 mps 754 mmHg 75%
10:00 +25°C° 0 mm 4 mps 754 mmHg 69%
11:00 +27°C° 0 mm 4 mps 754 mmHg 62%
12:00 +27°C° 0 mm 4 mps 754 mmHg 59%
13:00 +28°C° 0 mm 4 mps 754 mmHg 55%
14:00 +28°C° 0 mm 4 mps 754 mmHg 52%
15:00 +28°C° 0 mm 4 mps 753 mmHg 53%
16:00 +28°C° 0 mm 4 mps 753 mmHg 54%
17:00 +27°C° 0 mm 4 mps 753 mmHg 55%
18:00 +26°C° 0 mm 4 mps 753 mmHg 61%
19:00 +24°C° 0 mm 3 mps 753 mmHg 67%
20:00 +21°C° 0 mm 3 mps 753 mmHg 74%
21:00 +20°C° 0 mm 3 mps 753 mmHg 76%
22:00 +20°C° 0 mm 3 mps 753 mmHg 78%
23:00 +19°C° 0 mm 3 mps 753 mmHg 81%

8 August, Saturday

Time Temperature Precipitation Wind Pressure Humidity
00:00 +18°C° 0 mm 3 mps 753 mmHg 82%
01:00 +18°C° 0 mm 2 mps 753 mmHg 82%
02:00 +17°C° 0 mm 2 mps 753 mmHg 83%
03:00 +17°C° 0 mm 2 mps 753 mmHg 85%
04:00 +16°C° 0 mm 2 mps 753 mmHg 87%
05:00 +16°C° 0 mm 2 mps 753 mmHg 89%
06:00 +17°C° 0 mm 2 mps 753 mmHg 84%
07:00 +19°C° 0 mm 2 mps 753 mmHg 80%
08:00 +20°C° 0 mm 3 mps 753 mmHg 76%
09:00 +22°C° 0 mm 3 mps 753 mmHg 70%
10:00 +24°C° 0 mm 3 mps 753 mmHg 64%
11:00 +26°C° 0 mm 3 mps 753 mmHg 58%
12:00 +26°C° 0 mm 3 mps 752 mmHg 56%
13:00 +27°C° 0 mm 3 mps 752 mmHg 54%
14:00 +27°C° 0 mm 3 mps 752 mmHg 51%
15:00 +27°C° 0 mm 3 mps 751 mmHg 53%
16:00 +27°C° 0 mm 3 mps 751 mmHg 54%
17:00 +27°C° 0 mm 3 mps 751 mmHg 55%
18:00 +25°C° 0 mm 3 mps 751 mmHg 61%
19:00 +24°C° 0 mm 2 mps 750 mmHg 67%
20:00 +21°C° 0 mm 2 mps 750 mmHg 74%
21:00 +20°C° 0 mm 2 mps 750 mmHg 76%
22:00 +20°C° 0 mm 2 mps 750 mmHg 77%
23:00 +19°C° 0 mm 2 mps 750 mmHg 79%
Show more